Probability
7 6 6 6 6 4 1 0 0 0 0 0 0 0 0 0 0 0 0 0 0 0 0 0 1 3 5 6 5 3 2 1 0 0 0 0 0 0 0 0 0 0 0
6 6 6 5 5 4 1 0 0 0 0 0 0 0 0 0 0 0 0 0 0 0 0 0 0 2 3 5 5 3 2 1 0 0 0 0 0 0 0 0 0 0 0
5 5 4 4 4 3 2 1 0 0 0 0 0 0 0 0 0 0 0 0 0 0 0 0 0 0 1 3 3 3 1 0 0 0 0 0 0 0 0 0 0 0 0
4 4 3 3 3 3 2 1 0 0 0 0 0 0 0 0 0 0 0 0 0 0 0 0 0 0 0 1 1 1 1 0 0 0 0 0 0 0 0 0 0 0 0
4 3 3 3 2 1 1 0 0 0 0 0 0 0 0 0 0 0 0 0 0 0 0 0 0 0 0 0 0 0 0 0 0 0 0 0 0 0 0 0 0 0 0
3 3 3 3 1 0 0 0 0 0 0 0 0 0 0 0 0 0 0 0 0 0 0 0 0 0 0 0 0 0 0 0 0 0 0 0 0 0 0 0 0 0 0
3 3 3 2 1 0 0 0 0 0 0 0 0 0 0 0 0 0 0 0 0 0 0 0 0 0 0 0 0 0 0 0 0 0 0 0 0 0 0 0 0 0 0
3 3 2 1 0 0 0 0 0 0 0 0 0 0 0 0 0 0 0 0 0 0 0 0 0 0 0 0 0 0 0 0 0 0 0 0 0 0 0 0 0 0 0
2 1 1 0 0 0 0 0 0 0 0 0 0 0 0 0 0 0 0 0 0 0 0 0 0 0 0 0 0 0 0 0 0 0 0 0 0 0 0 0 0 0 0
1 0 0 0 0 0 0 0 0 0 0 0 0 0 0 0 0 0 0 0 0 0 0 0 0 0 0 0 0 0 0 0 0 0 0 0 0 0 0 0 0 0 0
0 0 0 0 0 0 0 0 0 0 0 0 0 0 0 0 0 0 0 0 0 0 0 0 0 0 0 0 0 0 0 0 0 0 0 0 0 0 0 0 0 0 0
0 0 0 0 0 0 0 0 0 0 0 0 0 0 0 0 0 0 0 0 0 0 0 0 0 0 0 0 0 0 0 0 0 0 0 0 0 0 0 0 0 0 0
0 0 0 0 0 0 0 0 0 0 0 0 0 0 0 0 0 0 0 0 0 0 0 0 0 0 0 0 0 0 0 0 0 0 0 0 0 0 0 0 0 0 0
0 0 0 0 0 0 0 0 0 0 0 0 0 0 0 0 0 0 0 0 0 0 0 0 0 0 0 0 0 0 0 0 0 0 0 0 0 0 0 0 0 0 0
0 0 0 0 0 0 0 0 0 0 0 0 0 0 0 0 0 0 0 0 0 0 0 0 0 0 0 0 0 0 0 0 0 0 0 0 0 0 0 0 0 0 0
0 0 0 0 0 0 0 0 0 0 0 0 0 0 0 0 0 0 0 0 0 0 0 0 0 0 0 0 0 0 0 0 0 0 0 0 0 0 0 0 0 0 0
0 0 0 0 0 0 0 0 0 0 0 0 0 0 0 0 0 0 0 0 0 0 0 0 0 0 0 0 0 0 0 0 0 0 0 0 0 0 0 0 0 0 0
0 0 0 0 0 0 0 0 0 0 0 0 0 0 0 0 0 0 0 0 0 0 0 0 0 0 0 0 0 0 0 0 0 0 0 0 0 0 0 0 0 0 0
0 0 0 0 0 0 0 0 0 0 0 0 0 0 0 0 0 0 0 0 0 0 0 0 0 0 0 0 0 0 0 0 0 0 0 0 0 0 0 0 0 0 0
0 0 0 0 0 0 0 0 0 0 0 0 0 0 0 0 0 0 0 0 0 0 0 0 0 0 0 0 0 0 0 0 0 0 0 0 0 0 0 0 0 0 0
0 0 0 0 0 0 0 0 0 0 0 0 0 0 0 0 0 0 0 0 0 0 0 0 0 0 0 0 0 0 0 0 0 0 0 0 0 0 0 0 0 0 0
0 0 0 0 0 0 0 0 0 0 0 0 0 0 0 0 0 0 0 0 0 0 0 0 0 0 0 0 0 0 0 0 0 0 0 0 0 0 0 0 0 0 0
0 0 0 0 0 0 0 0 0 0 0 0 0 0 0 0 0 0 0 0 0 1 1 0 0 0 0 0 0 0 0 0 0 0 0 0 0 0 0 0 0 0 0
0 0 0 0 0 0 0 0 0 0 0 0 0 0 0 0 0 0 0 0 1 2 2 1 0 0 0 0 0 0 0 0 0 0 0 0 0 0 0 0 0 0 0
0 0 0 0 0 0 0 0 0 0 0 0 0 0 0 1 1 1 1 0 1 2 3 1 0 0 0 0 0 0 0 0 0 0 0 0 0 0 0 0 0 0 0
0 0 0 0 0 0 0 0 0 0 0 0 0 0 1 2 2 2 2 1 1 2 3 2 1 0 0 0 0 0 0 0 0 0 0 0 0 0 0 0 0 0 0
Wind_Speed
5 4 3 3 2 2 2 2 2 2 2 2 3 3 3 4 4 4 4 3 3 3 3 3 3 3 2 2 1 1 1 0 0 0 0 1 1 0 0 1 2 3 3
4 4 3 3 3 2 2 2 2 2 3 3 3 4 4 4 4 4 5 4 4 4 4 3 3 3 3 2 2 1 1 0 1 0 0 0 1 1 1 1 1 2 3
4 5 4 3 3 3 2 3 3 3 3 4 4 4 4 4 4 4 4 4 4 4 4 4 3 3 3 2 2 1 1 1 1 1 1 0 1 1 1 1 1 0 2
5 5 4 3 3 2 3 3 3 3 3 3 4 4 4 5 6 6 6 4 4 3 3 3 3 3 3 3 2 2 1 1 1 0 0 0 0 0 0 1 1 1 1
5 4 4 4 3 3 3 2 2 2 3 3 3 3 4 4 6 7 6 5 4 4 3 3 3 3 3 3 2 2 2 1 1 0 0 0 0 0 0 1 0 0 1
4 4 4 3 3 3 2 1 1 2 3 3 3 4 5 5 7 8 6 5 4 4 3 3 2 2 3 3 3 2 2 2 1 1 0 1 1 0 0 1 0 0 1
4 4 3 3 3 2 1 2 2 2 2 2 3 3 4 5 7 8 9 4 4 3 3 3 3 4 5 4 3 3 2 2 2 2 1 2 1 1 1 1 1 1 2
4 3 3 2 3 2 2 2 2 1 1 1 2 2 3 5 6 8 9 4 3 3 2 3 3 3 5 5 4 3 2 2 2 1 2 2 1 1 1 1 1 2 2
4 3 3 2 2 2 2 2 1 1 1 1 1 2 2 3 6 7 8 3 2 2 2 3 3 3 5 6 3 3 3 2 2 1 1 1 2 2 2 1 1 1 1
4 3 3 2 1 2 2 1 1 1 1 1 1 1 2 2 4 5 6 2 2 2 1 1 3 3 4 5 3 2 3 3 3 3 1 1 2 3 5 4 3 1 1
4 3 2 2 1 2 1 0 1 1 1 1 1 1 0 0 1 3 4 2 3 3 2 1 2 2 4 4 3 2 2 3 2 2 1 1 1 1 2 3 3 2 1
3 3 3 2 1 2 1 1 2 2 2 2 2 2 1 1 0 1 2 3 4 3 3 2 2 2 4 5 4 3 5 5 2 2 1 1 0 0 1 2 3 3 3
3 3 2 2 1 1 2 2 2 2 2 2 2 1 1 1 1 1 3 4 4 2 2 3 3 4 5 4 4 5 4 2 1 1 1 1 1 1 1 1 2 3 3
3 2 2 2 2 2 2 2 1 1 2 2 1 1 0 0 1 1 1 1 2 2 3 4 5 7 6 5 4 3 3 3 2 1 1 1 1 1 1 2 2 2 1
2 2 3 3 3 2 2 1 1 1 1 1 2 2 2 2 2 3 3 3 3 3 4 3 3 3 3 3 3 3 3 2 2 2 2 1 1 1 2 2 2 2 2
3 3 3 3 3 3 3 2 1 3 3 3 2 2 1 1 3 4 3 4 4 4 3 3 4 3 2 2 2 2 1 1 2 2 2 2 2 2 2 3 3 3 3
3 3 3 3 3 3 3 3 3 4 6 6 6 6 6 6 6 6 5 5 6 3 3 5 4 3 2 2 2 2 1 1 2 2 2 2 2 2 3 3 3 3 3
5 4 4 3 3 3 3 3 3 4 4 5 8 11 11 10 9 8 5 4 5 4 5 5 4 3 3 3 2 2 2 2 2 2 2 2 2 3 3 3 3 3 3
4 3 3 4 4 3 3 3 3 3 3 3 3 6 10 11 10 9 5 4 6 6 4 4 4 3 3 3 2 2 2 2 2 2 2 3 3 3 3 4 3 5 4
3 5 5 5 5 4 4 4 3 3 3 3 3 4 5 5 5 6 7 7 7 6 5 4 3 3 3 3 3 2 2 2 2 2 3 3 3 3 4 5 4 4 4
5 6 7 7 6 5 5 4 4 4 4 3 3 3 4 4 5 5 5 6 6 5 4 4 3 3 3 3 3 3 3 2 2 2 2 2 3 3 3 4 4 5 4
5 5 6 6 5 5 5 5 5 5 5 5 3 4 7 6 5 4 4 4 4 4 4 3 4 3 3 3 2 2 3 3 2 2 2 3 3 3 4 4 4 4 4
6 6 6 5 5 5 6 6 6 6 5 5 5 4 4 5 5 4 4 3 3 3 3 3 4 4 3 3 3 3 3 3 2 3 3 3 3 4 4 5 6 6 6
7 7 8 6 6 6 6 6 6 6 6 5 5 4 4 4 5 4 4 4 4 4 4 4 4 5 6 4 3 3 2 2 2 3 4 4 5 5 5 5 6 7 7
8 8 8 7 6 6 6 6 6 6 6 5 5 5 5 4 4 4 4 4 5 5 5 5 4 5 6 6 5 3 2 2 2 3 4 4 6 6 6 7 7 7 7
9 8 8 7 6 6 6 6 6 6 6 6 5 5 5 5 5 5 5 4 4 4 5 4 6 6 6 5 5 4 4 5 5 5 5 5 6 6 6 6 8 8 9
Wind_Direction
114 106 96 90 77 71 59 44 30 2 346 352 351 347 345 346 350 343 334 348 355 354 352 2 355 346 348 335 334 323 338 15 165 28 49 72 61 332 191 169 168 165 163
119 111 98 87 80 70 57 35 18 1 357 2 1 354 354 3 355 350 345 356 355 356 357 359 351 356 360 355 349 353 358 307 138 152 263 237 242 220 206 207 205 177 160
129 120 113 98 82 72 56 36 26 16 12 7 9 7 3 2 2 358 351 353 0 0 3 359 356 3 2 358 351 1 345 2 59 173 247 233 259 232 189 245 236 137 186
123 118 116 105 94 78 64 42 24 13 12 17 9 7 6 16 12 3 355 355 358 1 9 5 3 10 4 349 354 3 355 341 309 206 212 188 245 242 181 228 240 221 237
123 123 114 108 102 85 67 47 24 3 15 18 12 14 10 31 17 4 351 350 358 1 4 14 22 25 14 346 346 343 334 314 311 307 185 144 253 159 224 266 235 284 282
125 119 112 110 103 90 76 62 28 13 16 6 18 22 23 25 14 6 356 341 345 357 359 2 10 25 16 349 326 305 300 298 287 278 270 206 222 209 257 240 184 298 289
126 122 116 109 106 100 74 66 41 33 21 10 20 35 38 26 12 358 349 332 337 353 356 349 357 13 12 354 327 286 269 273 243 236 240 253 219 205 192 224 223 276 267
137 131 118 114 110 101 79 71 47 32 20 13 31 33 35 28 9 354 342 333 338 354 4 8 10 16 11 356 332 351 6 356 315 253 246 251 229 191 216 234 235 259 263
145 141 133 117 100 91 74 55 46 23 352 359 53 40 37 21 2 352 344 327 347 354 7 15 18 27 8 357 351 355 1 3 1 11 320 251 230 223 208 175 244 251 286
148 144 132 120 107 81 73 39 351 319 318 327 44 45 40 18 350 348 345 334 347 341 341 40 42 27 8 1 355 353 355 358 359 356 348 261 225 222 216 203 217 229 285
145 139 135 138 148 122 93 359 301 297 303 329 336 306 32 324 324 334 346 341 337 335 335 4 50 33 15 2 352 337 322 322 319 310 295 265 205 191 193 201 210 216 240
144 148 152 165 202 129 149 230 253 259 256 240 244 248 216 183 257 282 299 309 318 334 342 7 47 11 347 334 324 310 318 325 305 301 314 5 10 220 210 218 223 236 233
146 151 162 169 180 186 222 236 232 236 252 247 236 228 202 166 177 267 276 282 296 308 324 324 316 304 309 304 283 286 298 290 290 319 355 350 256 239 229 249 256 250 253
147 156 181 192 204 217 246 271 283 306 303 301 303 308 318 106 57 14 292 264 276 281 292 289 278 270 266 268 282 273 248 249 252 260 278 272 275 259 235 236 245 251 256
170 196 216 210 202 210 209 273 303 25 3 317 343 348 348 4 5 340 330 344 352 8 330 291 270 261 250 240 242 241 232 223 229 233 235 249 260 262 266 258 245 247 252
189 212 227 222 211 212 192 179 199 209 205 211 229 251 269 239 263 292 310 318 322 341 332 291 280 266 269 270 261 248 239 235 245 252 243 240 248 254 259 258 250 248 254
216 232 245 240 233 228 212 198 198 215 232 244 247 247 247 261 270 276 290 313 304 302 272 270 271 275 275 275 271 264 260 254 259 258 262 265 264 262 263 262 260 258 259
221 226 237 248 249 247 242 236 220 208 209 220 229 233 239 249 259 268 282 307 282 247 240 252 257 254 253 258 263 260 260 264 259 266 274 279 279 278 277 275 275 275 274
227 233 239 254 255 248 249 246 240 235 229 220 207 209 226 238 250 259 254 252 266 268 256 250 253 254 253 254 253 245 238 247 253 256 261 267 273 278 282 283 282 284 279
225 249 260 263 258 254 253 254 250 241 238 232 227 213 193 203 226 229 217 231 247 260 267 269 266 258 259 260 256 248 248 246 248 251 259 261 265 269 274 277 280 278 272
221 224 232 249 253 256 259 257 258 260 258 250 235 217 207 226 241 241 225 217 229 244 252 262 266 259 252 250 255 261 265 265 259 263 272 272 276 279 278 278 281 284 286
236 234 235 240 243 248 255 256 255 258 262 264 248 216 219 233 252 253 246 233 230 235 243 245 262 273 269 268 268 264 268 271 269 266 271 278 276 277 281 283 285 289 290
247 246 249 248 248 247 253 257 258 259 262 262 261 247 221 234 250 254 256 253 246 242 245 247 254 262 267 266 259 258 262 271 272 275 275 276 280 284 287 287 290 292 290
244 244 247 249 248 245 250 255 256 256 255 256 261 256 245 239 250 258 259 258 256 249 244 245 252 259 263 263 265 271 271 272 286 289 291 290 289 286 287 288 287 289 290
251 251 252 249 250 253 255 259 261 262 263 259 256 260 260 251 248 251 249 247 248 247 248 249 251 253 255 258 263 258 235 231 244 274 282 277 278 281 283 287 288 290 289
249 250 256 255 252 256 260 263 263 263 264 264 260 258 262 261 258 256 254 253 255 252 250 250 254 259 259 256 251 239 230 228 232 240 255 265 271 275 281 281 285 287 287